Location: Campolattaro
(41.2833°N, 14.7333°E)
Time: 17:36:17
(UTC+00:00)

CZ-4B R/B - Pass Details

Date: 19 May 2025
Orbit: 807 x 881 km, 98.9° (Epoch: 16 June)

Event Time Altitude Azimuth Distance (km) Brightness Sun altitude
Exits shadow 19:20:22 - 171° (S) 3,025 5.6 -10.8°
Reaches altitude 10° 19:21:44 10° 173° (S) 2,488 5.2 -11.0°
Maximum altitude 19:27:15 71° 257° (WSW) 899 3.5 -11.8°
Drops below altitude 10° 19:32:41 10° 342° (NNW) 2,456 6.6 -12.5°
Sets 19:35:03 0° 344° (NNW) 3,383 7.4 -12.9°
